| time (UTC) | temp F | wind direction | speed knots | gust knots | rain 1hr in | rain 24hr in | rain mn in | humidity % | barometer mb |
| 20260905202846 | 72 | 293 | 1.7 | 5.2 | 0.00 | 0.00 | 0.00 | 67 | 1013.8 |
| 20260905202343 | 72 | 338 | 3.5 | 5.2 | 0.00 | 0.00 | 0.00 | 65 | 1013.8 |
| 20260905201840 | 72 | 97 | 1.7 | 4.3 | 0.00 | 0.00 | 0.00 | 67 | 1013.8 |
| 20260905201340 | 71 | 148 | 1.7 | 4.3 | 0.00 | 0.00 | 0.00 | 68 | 1013.8 |
| 20260905200856 | 71 | 210 | 1.7 | 5.2 | 0.00 | 0.00 | 0.00 | 70 | 1013.9 |
| 20260905200331 | 70 | 13 | 2.6 | 7.8 | 0.00 | 0.00 | 0.00 | 69 | 1013.8 |
| 20260905195840 | 70 | 17 | 3.5 | 7.8 | 0.00 | 0.00 | 0.00 | 69 | 1013.9 |
| 20260905195357 | 70 | 63 | 1.7 | 5.2 | 0.00 | 0.00 | 0.00 | 69 | 1013.9 |
| 20260905194852 | 71 | 195 | 2.6 | 5.2 | 0.00 | 0.00 | 0.00 | 67 | 1014.0 |
| 20260905194408 | 70 | 197 | 1.7 | 3.5 | 0.00 | 0.00 | 0.00 | 71 | 1014.1 |
| 20260905193844 | 70 | 9 | 1.7 | 5.2 | 0.00 | 0.00 | 0.00 | 68 | 1014.1 |
| 20260905193340 | 70 | 57 | 1.7 | 7.0 | 0.00 | 0.00 | 0.00 | 68 | 1014.0 |
| 20260905192837 | 72 | 296 | 3.5 | 7.0 | 0.00 | 0.00 | 0.00 | 68 | 1014.1 |
| 20260905192334 | 72 | 311 | 2.6 | 9.6 | 0.00 | 0.00 | 0.00 | 67 | 1014.1 |
| 20260905191850 | 72 | 301 | 1.7 | 9.6 | 0.00 | 0.00 | 0.00 | 67 | 1014.1 |
| 20260905191406 | 71 | 333 | 3.5 | 8.7 | 0.00 | 0.00 | 0.00 | 68 | 1014.1 |
| 20260905190900 | 72 | 48 | 1.7 | 7.0 | 0.00 | 0.00 | 0.00 | 66 | 1014.1 |
| 20260905190355 | 72 | 262 | 3.5 | 7.8 | 0.00 | 0.00 | 0.00 | 69 | 1014.1 |
| 20260905185843 | 71 | 51 | 3.5 | 7.8 | 0.00 | 0.00 | 0.00 | 69 | 1014.2 |
| 20260905185339 | 71 | 248 | 2.6 | 4.3 | 0.00 | 0.00 | 0.00 | 68 | 1014.3 |
| 20260905184834 | 71 | 322 | 1.7 | 7.0 | 0.00 | 0.00 | 0.00 | 72 | 1014.2 |
| 20260905184350 | 70 | 63 | 3.5 | 7.0 | 0.00 | 0.00 | 0.00 | 72 | 1014.2 |
| 20260905183848 | 70 | 69 | 1.7 | 3.5 | 0.00 | 0.00 | 0.00 | 71 | 1014.3 |
| 20260905183343 | 71 | 5 | 0.9 | 4.3 | 0.00 | 0.00 | 0.00 | 65 | 1014.2 |
| 20260905182900 | 71 | 57 | 0.9 | 3.5 | 0.00 | 0.00 | 0.00 | 67 | 1014.3 |
| 20260905182335 | 70 | 351 | 0.9 | 3.5 | 0.00 | 0.00 | 0.00 | 73 | 1014.3 |
| 20260905181852 | 70 | 342 | 1.7 | 3.5 | 0.00 | 0.00 | 0.00 | 69 | 1014.2 |
| 20260905181347 | 71 | 17 | 1.7 | 5.2 | 0.00 | 0.00 | 0.00 | 68 | 1014.2 |
| 20260905180841 | 72 | 51 | 3.5 | 7.8 | 0.00 | 0.00 | 0.00 | 67 | 1014.2 |
| 20260905180335 | 71 | 15 | 3.5 | 7.8 | 0.00 | 0.00 | 0.00 | 68 | 1014.2 |
| 20260905175843 | 71 | 54 | 0.9 | 5.2 | 0.00 | 0.00 | 0.00 | 67 | 1014.2 |
| 20260905175344 | 71 | 317 | 2.6 | 5.2 | 0.00 | 0.00 | 0.00 | 67 | 1014.2 |
| 20260905174841 | 71 | 232 | 2.6 | 5.2 | 0.00 | 0.00 | 0.00 | 68 | 1014.2 |
| 20260905174338 | 71 | 24 | 1.7 | 3.5 | 0.00 | 0.00 | 0.00 | 70 | 1014.3 |
| 20260905173855 | 70 | 281 | 1.7 | 3.5 | 0.00 | 0.00 | 0.00 | 72 | 1014.2 |
| 20260905173412 | 70 | 232 | 1.7 | 7.0 | 0.00 | 0.00 | 0.00 | 73 | 1014.2 |
| 20260905172847 | 70 | 292 | 3.5 | 7.0 | 0.00 | 0.00 | 0.00 | 69 | 1014.3 |
| 20260905172344 | 68 | 28 | 1.7 | 5.2 | 0.00 | 0.00 | 0.00 | 74 | 1014.5 |
| 20260905171839 | 69 | 51 | 0.9 | 4.3 | 0.00 | 0.00 | 0.00 | 73 | 1014.4 |
| 20260905171357 | 69 | 294 | 1.7 | 5.2 | 0.00 | 0.00 | 0.00 | 72 | 1014.3 |
| 20260905170832 | 69 | 52 | 2.6 | 5.2 | 0.00 | 0.00 | 0.00 | 72 | 1014.3 |
| 20260905170329 | 69 | 9 | 2.6 | 4.3 | 0.00 | 0.00 | 0.00 | 72 | 1014.4 |
| 20260905165858 | 69 | 355 | 2.6 | 5.2 | 0.00 | 0.00 | 0.00 | 73 | 1014.4 |
| 20260905165335 | 68 | 50 | 2.6 | 5.2 | 0.00 | 0.00 | 0.00 | 74 | 1014.4 |
| 20260905164912 | 68 | 38 | 1.7 | 5.2 | 0.00 | 0.00 | 0.00 | 75 | 1014.3 |
| 20260905164408 | 68 | 45 | 1.7 | 5.2 | 0.00 | 0.00 | 0.00 | 72 | 1014.5 |
| 20260905163844 | 69 | 46 | 2.6 | 7.0 | 0.00 | 0.00 | 0.00 | 72 | 1014.5 |
| 20260905163343 | 69 | 344 | 3.5 | 7.8 | 0.00 | 0.00 | 0.00 | 72 | 1014.3 |
| 20260905162839 | 68 | 360 | 0.9 | 7.8 | 0.00 | 0.00 | 0.00 | 75 | 1014.4 |
| 20260905162342 | 69 | 30 | 3.5 | 7.8 | 0.00 | 0.00 | 0.00 | 74 | 1014.4 |
| 20260905161859 | 69 | 355 | 3.5 | 9.6 | 0.00 | 0.00 | 0.00 | 72 | 1014.4 |
| 20260905161334 | 69 | 53 | 2.6 | 9.6 | 0.00 | 0.00 | 0.00 | 71 | 1014.3 |
| 20260905160832 | 70 | 74 | 4.3 | 9.6 | 0.00 | 0.00 | 0.00 | 69 | 1014.4 |
| 20260905160349 | 70 | 67 | 5.2 | 9.6 | 0.00 | 0.00 | 0.00 | 72 | 1014.4 |
| 20260905155838 | 71 | 105 | 2.6 | 7.8 | 0.00 | 0.00 | 0.00 | 75 | 1014.4 |
| 20260905155339 | 69 | 96 | 3.5 | 7.0 | 0.00 | 0.00 | 0.00 | 73 | 1014.6 |
| 20260905154834 | 69 | 284 | 3.5 | 7.0 | 0.00 | 0.00 | 0.00 | 73 | 1014.6 |
| 20260905154350 | 70 | 271 | 0.9 | 7.0 | 0.00 | 0.00 | 0.00 | 74 | 1014.4 |
| 20260905153847 | 68 | 71 | 3.5 | 8.7 | 0.00 | 0.00 | 0.00 | 75 | 1014.5 |
| 20260905153343 | 69 | 84 | 4.3 | 11.3 | 0.00 | 0.00 | 0.00 | 73 | 1014.6 |
| 20260905152840 | 70 | 53 | 5.2 | 11.3 | 0.00 | 0.00 | 0.00 | 73 | 1014.5 |
| 20260905152338 | 70 | 349 | 2.6 | 6.1 | 0.00 | 0.00 | 0.00 | 77 | 1014.5 |
| 20260905151833 | 69 | 80 | 3.5 | 10.4 | 0.00 | 0.00 | 0.00 | 72 | 1014.6 |
| 20260905151351 | 69 | 336 | 4.3 | 13.0 | 0.00 | 0.00 | 0.00 | 75 | 1014.5 |
| 20260905150847 | 69 | 315 | 2.6 | 13.0 | 0.00 | 0.00 | 0.00 | 74 | 1014.5 |
| 20260905150403 | 70 | 111 | 3.5 | 9.6 | 0.00 | 0.00 | 0.00 | 74 | 1014.6 |
| 20260905145850 | 70 | 96 | 5.2 | 13.0 | 0.00 | 0.00 | 0.00 | 77 | 1014.6 |
| 20260905145407 | 69 | 70 | 3.5 | 13.0 | 0.00 | 0.00 | 0.00 | 75 | 1014.6 |
| 20260905144841 | 69 | 51 | 6.1 | 11.3 | 0.00 | 0.00 | 0.00 | 74 | 1014.5 |
| 20260905144337 | 69 | 88 | 3.5 | 10.4 | 0.00 | 0.00 | 0.00 | 74 | 1014.5 |
| 20260905143835 | 69 | 95 | 7.0 | 10.4 | 0.00 | 0.00 | 0.00 | 75 | 1014.4 |
| 20260905143351 | 69 | 107 | 3.5 | 8.7 | 0.00 | 0.00 | 0.00 | 74 | 1014.3 |
| 20260905142848 | 69 | 32 | 5.2 | 8.7 | 0.00 | 0.00 | 0.00 | 74 | 1014.4 |
| 20260905142344 | 68 | 74 | 3.5 | 8.7 | 0.00 | 0.00 | 0.00 | 77 | 1014.3 |
| 20260905141859 | 68 | 31 | 3.5 | 8.7 | 0.00 | 0.00 | 0.00 | 76 | 1014.5 |
| 20260905141340 | 68 | 22 | 4.3 | 7.8 | 0.00 | 0.00 | 0.00 | 78 | 1014.5 |
| 20260905140837 | 68 | 80 | 2.6 | 7.8 | 0.00 | 0.00 | 0.00 | 76 | 1014.5 |
| 20260905140333 | 68 | 28 | 2.6 | 7.0 | 0.00 | 0.00 | 0.00 | 80 | 1014.4 |
| 20260905135841 | 68 | 73 | 3.5 | 7.8 | 0.00 | 0.00 | 0.00 | 79 | 1014.5 |
| 20260905135338 | 68 | 44 | 2.6 | 8.7 | 0.00 | 0.00 | 0.00 | 80 | 1014.5 |
| 20260905134854 | 67 | 130 | 3.5 | 8.7 | 0.00 | 0.00 | 0.00 | 81 | 1014.5 |
| 20260905134349 | 67 | 73 | 3.5 | 7.8 | 0.00 | 0.00 | 0.00 | 81 | 1014.6 |
| 20260905133846 | 67 | 103 | 4.3 | 7.8 | 0.00 | 0.00 | 0.00 | 83 | 1014.6 |
| 20260905133341 | 67 | 355 | 2.6 | 6.1 | 0.00 | 0.00 | 0.00 | 85 | 1014.6 |
| 20260905132838 | 67 | 113 | 2.6 | 5.2 | 0.00 | 0.00 | 0.00 | 85 | 1014.6 |
| 20260905132335 | 66 | 47 | 1.7 | 4.3 | 0.00 | 0.00 | 0.00 | 86 | 1014.5 |
| 20260905131851 | 66 | 82 | 2.6 | 5.2 | 0.00 | 0.00 | 0.00 | 88 | 1014.5 |
| 20260905131348 | 65 | 141 | 1.7 | 5.2 | 0.00 | 0.00 | 0.00 | 86 | 1014.5 |
| 20260905130842 | 65 | 42 | 2.6 | 8.7 | 0.00 | 0.00 | 0.00 | 87 | 1014.4 |
| 20260905130338 | 65 | 31 | 3.5 | 8.7 | 0.00 | 0.00 | 0.00 | 87 | 1014.5 |
| 20260905125846 | 65 | 46 | 2.6 | 7.8 | 0.00 | 0.00 | 0.00 | 86 | 1014.4 |
| 20260905125343 | 65 | 20 | 3.5 | 7.0 | 0.00 | 0.00 | 0.00 | 87 | 1014.3 |
| 20260905124839 | 65 | 32 | 0.9 | 5.2 | 0.00 | 0.00 | 0.00 | 88 | 1014.4 |
| 20260905124356 | 65 | 61 | 0.9 | 7.0 | 0.00 | 0.00 | 0.00 | 88 | 1014.4 |
| 20260905123836 | 64 | 24 | 4.3 | 7.0 | 0.00 | 0.00 | 0.00 | 88 | 1014.5 |
| 20260905123352 | 64 | 28 | 3.5 | 6.1 | 0.00 | 0.00 | 0.00 | 88 | 1014.5 |
| 20260905122848 | 64 | 60 | 2.6 | 5.2 | 0.00 | 0.00 | 0.00 | 88 | 1014.5 |
| 20260905122344 | 64 | 76 | 2.6 | 5.2 | 0.00 | 0.00 | 0.00 | 88 | 1014.5 |
| 20260905121841 | 64 | 63 | 2.6 | 4.3 | 0.00 | 0.00 | 0.00 | 88 | 1014.5 |
| 20260905121336 | 64 | 42 | 2.6 | 5.2 | 0.00 | 0.00 | 0.00 | 89 | 1014.5 |
| 20260905120834 | 64 | 44 | 1.7 | 5.2 | 0.00 | 0.00 | 0.00 | 91 | 1014.5 |
| 20260905120329 | 63 | 57 | 0.9 | 3.5 | 0.00 | 0.00 | 0.00 | 92 | 1014.5 |
| 20260905115857 | 64 | 41 | 0.9 | 2.6 | 0.00 | 0.00 | 0.00 | 94 | 1014.6 |
| 20260905115333 | 63 | 44 | 0.0 | 2.6 | 0.00 | 0.00 | 0.00 | 94 | 1014.5 |
| 20260905114848 | 63 | 29 | 1.7 | 2.6 | 0.00 | 0.00 | 0.00 | 95 | 1014.5 |
| 20260905114345 | 63 | 29 | 0.9 | 1.7 | 0.00 | 0.00 | 0.00 | 95 | 1014.5 |
| 20260905113840 | 62 | 29 | 0.9 | 1.7 | 0.00 | 0.00 | 0.00 | 95 | 1014.5 |
| 20260905113357 | 62 | 29 | 0.9 | 2.6 | 0.00 | 0.00 | 0.00 | 94 | 1014.5 |
| 20260905112833 | 62 | 29 | 0.9 | 1.7 | 0.00 | 0.00 | 0.00 | 94 | 1014.5 |
| 20260905112348 | 62 | 29 | 0.0 | 1.7 | 0.00 | 0.00 | 0.00 | 94 | 1014.4 |
| 20260905111845 | 61 | 29 | 0.0 | 0.9 | 0.00 | 0.00 | 0.00 | 94 | 1014.2 |
| 20260905111342 | 61 | 29 | 0.0 | 1.7 | 0.00 | 0.00 | 0.00 | 94 | 1014.2 |
| 20260905110840 | 61 | 29 | 0.9 | 1.7 | 0.00 | 0.00 | 0.00 | 94 | 1014.1 |
| 20260905110356 | 61 | 29 | 0.0 | 1.7 | 0.00 | 0.00 | 0.00 | 94 | 1013.9 |
| 20260905105844 | 61 | 29 | 0.9 | 1.7 | 0.00 | 0.00 | 0.00 | 94 | 1013.9 |
| 20260905105400 | 61 | 29 | 0.0 | 2.6 | 0.00 | 0.00 | 0.00 | 94 | 1013.8 |
| 20260905104835 | 61 | 29 | 0.0 | 2.6 | 0.00 | 0.00 | 0.00 | 94 | 1013.5 |
| 20260905104334 | 61 | 33 | 0.9 | 2.6 | 0.00 | 0.00 | 0.00 | 94 | 1013.5 |
| 20260905103849 | 61 | 34 | 0.9 | 2.6 | 0.00 | 0.00 | 0.00 | 94 | 1013.4 |
| 20260905103346 | 61 | 338 | 0.9 | 3.5 | 0.00 | 0.00 | 0.00 | 93 | 1013.5 |
| 20260905102842 | 61 | 355 | 1.7 | 3.5 | 0.00 | 0.00 | 0.00 | 93 | 1013.4 |
| 20260905102338 | 61 | 334 | 0.0 | 3.5 | 0.00 | 0.00 | 0.00 | 93 | 1013.5 |
| 20260905101836 | 61 | 328 | 0.9 | 3.5 | 0.00 | 0.00 | 0.00 | 93 | 1013.4 |
| 20260905101351 | 61 | 22 | 0.9 | 1.7 | 0.00 | 0.00 | 0.00 | 93 | 1013.5 |
| 20260905100848 | 61 | 22 | 0.0 | 1.7 | 0.00 | 0.00 | 0.00 | 93 | 1013.7 |
| 20260905100344 | 61 | 22 | 0.0 | 1.7 | 0.00 | 0.00 | 0.00 | 93 | 1013.5 |
| 20260905095833 | 61 | 22 | 0.9 | 2.6 | 0.00 | 0.00 | 0.00 | 93 | 1013.4 |
| 20260905095348 | 61 | 27 | 0.0 | 2.6 | 0.00 | 0.00 | 0.00 | 93 | 1013.3 |
| 20260905094846 | 61 | 27 | 0.9 | 2.6 | 0.00 | 0.00 | 0.00 | 93 | 1013.5 |
| 20260905094342 | 61 | 26 | 1.7 | 2.6 | 0.00 | 0.00 | 0.00 | 93 | 1013.4 |
| 20260905093839 | 61 | 350 | 0.9 | 1.7 | 0.00 | 0.00 | 0.00 | 93 | 1013.4 |
| 20260905093335 | 61 | 350 | 0.9 | 1.7 | 0.00 | 0.00 | 0.00 | 92 | 1013.4 |
| 20260905092852 | 62 | 350 | 0.0 | 1.7 | 0.00 | 0.00 | 0.00 | 92 | 1013.4 |
| 20260905092332 | 62 | 350 | 0.0 | 2.6 | 0.00 | 0.00 | 0.00 | 92 | 1013.3 |
| 20260905091849 | 62 | 350 | 0.9 | 2.6 | 0.00 | 0.00 | 0.00 | 92 | 1013.5 |
| 20260905091347 | 62 | 350 | 0.9 | 2.6 | 0.00 | 0.00 | 0.00 | 92 | 1013.4 |
| 20260905090842 | 62 | 350 | 0.9 | 2.6 | 0.00 | 0.00 | 0.00 | 92 | 1013.4 |
| 20260905090338 | 62 | 350 | 0.0 | 1.7 | 0.00 | 0.00 | 0.00 | 92 | 1013.3 |
| 20260905085846 | 62 | 350 | 0.0 | 1.7 | 0.00 | 0.00 | 0.00 | 92 | 1013.3 |
| 20260905085343 | 62 | 350 | 0.0 | 2.6 | 0.00 | 0.00 | 0.00 | 92 | 1013.2 |
| 20260905084841 | 62 | 350 | 0.9 | 2.6 | 0.00 | 0.00 | 0.00 | 92 | 1013.1 |
| 20260905084337 | 62 | 349 | 0.9 | 1.7 | 0.00 | 0.00 | 0.00 | 91 | 1013.0 |
| 20260905083852 | 62 | 349 | 0.0 | 0.9 | 0.00 | 0.00 | 0.00 | 91 | 1012.9 |
| 20260905083349 | 62 | 349 | 0.0 | 0.9 | 0.00 | 0.00 | 0.00 | 91 | 1013.0 |
| 20260905082844 | 62 | 349 | 0.0 | 1.7 | 0.00 | 0.00 | 0.00 | 91 | 1013.0 |
| 20260905082341 | 62 | 349 | 0.0 | 2.6 | 0.00 | 0.00 | 0.00 | 91 | 1013.1 |
| 20260905081837 | 62 | 349 | 0.9 | 2.6 | 0.00 | 0.00 | 0.00 | 91 | 1013.0 |
| 20260905081333 | 62 | 349 | 0.9 | 2.6 | 0.00 | 0.00 | 0.00 | 91 | 1013.2 |
| 20260905080849 | 62 | 349 | 0.9 | 2.6 | 0.00 | 0.00 | 0.00 | 91 | 1013.2 |
| 20260905080345 | 63 | 349 | 0.9 | 3.5 | 0.00 | 0.00 | 0.00 | 91 | 1013.2 |
| 20260905075834 | 63 | 11 | 1.7 | 4.3 | 0.00 | 0.00 | 0.00 | 91 | 1013.1 |
| 20260905075411 | 63 | 28 | 0.9 | 3.5 | 0.00 | 0.00 | 0.00 | 91 | 1013.1 |
| 20260905074906 | 63 | 17 | 0.9 | 3.5 | 0.00 | 0.00 | 0.00 | 91 | 1013.2 |
| 20260905074341 | 63 | 26 | 1.7 | 4.3 | 0.00 | 0.00 | 0.00 | 90 | 1013.2 |
| 20260905073857 | 63 | 30 | 1.7 | 3.5 | 0.00 | 0.00 | 0.00 | 90 | 1013.3 |
| 20260905073335 | 63 | 16 | 1.7 | 4.3 | 0.00 | 0.00 | 0.00 | 90 | 1013.4 |
| 20260905072850 | 63 | 57 | 1.7 | 4.3 | 0.00 | 0.00 | 0.00 | 90 | 1013.4 |
| 20260905072347 | 63 | 360 | 0.9 | 4.3 | 0.00 | 0.00 | 0.00 | 90 | 1013.4 |
| 20260905071903 | 63 | 36 | 1.7 | 4.3 | 0.00 | 0.00 | 0.00 | 89 | 1013.6 |
| 20260905071339 | 63 | 11 | 0.9 | 2.6 | 0.00 | 0.00 | 0.00 | 89 | 1013.7 |
| 20260905070835 | 63 | 15 | 0.9 | 2.6 | 0.00 | 0.00 | 0.00 | 89 | 1013.6 |
| 20260905070331 | 63 | 26 | 0.9 | 2.6 | 0.00 | 0.00 | 0.00 | 89 | 1013.6 |
| 20260905065838 | 63 | 26 | 0.9 | 2.6 | 0.00 | 0.00 | 0.00 | 89 | 1013.6 |
| 20260905065335 | 63 | 26 | 0.9 | 2.6 | 0.00 | 0.00 | 0.00 | 89 | 1013.7 |
| 20260905064851 | 63 | 9 | 0.0 | 2.6 | 0.00 | 0.00 | 0.00 | 89 | 1013.6 |
| 20260905064408 | 63 | 355 | 0.9 | 2.6 | 0.00 | 0.00 | 0.00 | 88 | 1013.7 |
| 20260905063841 | 64 | 355 | 0.9 | 2.6 | 0.00 | 0.00 | 0.00 | 88 | 1013.7 |
| 20260905063338 | 64 | 355 | 0.9 | 2.6 | 0.00 | 0.00 | 0.00 | 88 | 1013.8 |
| 20260905062834 | 64 | 355 | 0.9 | 2.6 | 0.00 | 0.00 | 0.00 | 88 | 1013.9 |
| 20260905062410 | 64 | 355 | 0.9 | 2.6 | 0.00 | 0.00 | 0.00 | 88 | 1013.9 |
| 20260905061846 | 64 | 5 | 0.9 | 2.6 | 0.00 | 0.00 | 0.00 | 88 | 1014.0 |
| 20260905061342 | 64 | 355 | 0.9 | 2.6 | 0.00 | 0.00 | 0.00 | 88 | 1013.8 |
| 20260905060839 | 64 | 5 | 0.9 | 3.5 | 0.00 | 0.00 | 0.00 | 88 | 1014.0 |
| 20260905060354 | 64 | 360 | 0.9 | 3.5 | 0.00 | 0.00 | 0.00 | 89 | 1014.1 |
| 20260905055843 | 63 | 14 | 1.7 | 4.3 | 0.00 | 0.00 | 0.00 | 89 | 1014.0 |
| 20260905055338 | 63 | 355 | 1.7 | 5.2 | 0.00 | 0.00 | 0.00 | 89 | 1014.1 |
| 20260905054835 | 63 | 322 | 0.9 | 5.2 | 0.00 | 0.00 | 0.00 | 89 | 1014.1 |
| 20260905054335 | 63 | 15 | 1.7 | 3.5 | 0.00 | 0.00 | 0.00 | 89 | 1014.1 |
| 20260905053852 | 63 | 27 | 1.7 | 3.5 | 0.00 | 0.00 | 0.00 | 89 | 1014.1 |
| 20260905053348 | 63 | 349 | 0.9 | 4.3 | 0.00 | 0.00 | 0.00 | 89 | 1014.2 |
| 20260905052844 | 63 | 47 | 0.9 | 4.3 | 0.00 | 0.00 | 0.00 | 89 | 1014.2 |
| 20260905052340 | 63 | 338 | 0.9 | 3.5 | 0.00 | 0.00 | 0.00 | 89 | 1014.1 |
| 20260905051837 | 63 | 336 | 0.0 | 3.5 | 0.00 | 0.00 | 0.00 | 89 | 1014.0 |
| 20260905051333 | 63 | 314 | 0.9 | 3.5 | 0.00 | 0.00 | 0.00 | 90 | 1014.0 |
| 20260905050850 | 63 | 325 | 0.9 | 4.3 | 0.00 | 0.00 | 0.00 | 90 | 1014.0 |
| 20260905050346 | 64 | 298 | 1.7 | 4.3 | 0.00 | 0.00 | 0.00 | 90 | 1014.1 |
| 20260905045854 | 64 | 316 | 0.9 | 3.5 | 0.00 | 0.00 | 0.00 | 91 | 1014.1 |
| 20260905045350 | 64 | 313 | 0.9 | 2.6 | 0.00 | 0.00 | 0.00 | 91 | 1014.1 |
| 20260905044907 | 64 | 321 | 0.0 | 2.6 | 0.00 | 0.00 | 0.00 | 91 | 1014.1 |
| 20260905044402 | 64 | 321 | 0.9 | 2.6 | 0.00 | 0.00 | 0.00 | 91 | 1014.1 |
| 20260905043838 | 64 | 304 | 0.9 | 2.6 | 0.00 | 0.00 | 0.00 | 92 | 1014.2 |
| 20260905043354 | 64 | 325 | 1.7 | 2.6 | 0.00 | 0.00 | 0.00 | 92 | 1014.2 |
| 20260905042850 | 65 | 304 | 0.9 | 2.6 | 0.00 | 0.00 | 0.00 | 92 | 1014.2 |
| 20260905042345 | 65 | 279 | 0.9 | 2.6 | 0.00 | 0.00 | 0.00 | 92 | 1014.3 |
| 20260905041842 | 65 | 279 | 0.9 | 3.5 | 0.00 | 0.00 | 0.00 | 93 | 1014.3 |
| 20260905041338 | 65 | 18 | 0.9 | 2.6 | 0.00 | 0.00 | 0.00 | 93 | 1014.4 |
| 20260905040834 | 66 | 22 | 0.9 | 2.6 | 0.00 | 0.00 | 0.00 | 93 | 1014.2 |
| 20260905040330 | 66 | 22 | 0.9 | 1.7 | 0.00 | 0.00 | 0.00 | 93 | 1014.3 |
| 20260905035838 | 66 | 22 | 0.9 | 1.7 | 0.00 | 0.00 | 0.00 | 93 | 1014.3 |
| 20260905035339 | 66 | 22 | 0.0 | 0.9 | 0.00 | 0.00 | 0.00 | 93 | 1014.3 |
| 20260905034855 | 66 | 22 | 0.0 | 0.9 | 0.00 | 0.00 | 0.00 | 93 | 1014.3 |
| 20260905034350 | 66 | 22 | 0.0 | 0.9 | 0.00 | 0.00 | 0.00 | 93 | 1014.2 |
| 20260905033846 | 66 | 22 | 0.0 | 0.0 | 0.00 | 0.00 | 0.00 | 93 | 1014.2 |
| 20260905033344 | 66 | 22 | 0.0 | 0.0 | 0.00 | 0.00 | 0.00 | 93 | 1014.3 |
| 20260905032838 | 66 | 22 | 0.0 | 0.0 | 0.00 | 0.00 | 0.00 | 93 | 1014.4 |
| 20260905032335 | 66 | 22 | 0.0 | 0.0 | 0.00 | 0.00 | 0.00 | 93 | 1014.3 |
| 20260905031913 | 66 | 22 | 0.0 | 0.0 | 0.00 | 0.00 | 0.00 | 93 | 1014.3 |
| 20260905031347 | 66 | 22 | 0.0 | 0.0 | 0.00 | 0.00 | 0.00 | 93 | 1014.2 |
| 20260905030904 | 66 | 22 | 0.0 | 0.0 | 0.00 | 0.00 | 0.00 | 93 | 1014.2 |
| 20260905030339 | 66 | 22 | 0.0 | 0.9 | 0.00 | 0.00 | 0.00 | 92 | 1014.1 |
| 20260905025848 | 66 | 22 | 0.0 | 0.9 | 0.00 | 0.00 | 0.00 | 92 | 1014.2 |
| 20260905025343 | 66 | 22 | 0.0 | 0.9 | 0.00 | 0.00 | 0.00 | 92 | 1014.1 |
| 20260905024839 | 66 | 22 | 0.0 | 0.9 | 0.00 | 0.00 | 0.00 | 92 | 1014.2 |
| 20260905024335 | 66 | 22 | 0.0 | 0.9 | 0.00 | 0.00 | 0.00 | 92 | 1014.2 |
| 20260905023912 | 66 | 22 | 0.0 | 0.9 | 0.00 | 0.00 | 0.00 | 92 | 1014.2 |
| 20260905023349 | 66 | 22 | 0.0 | 0.9 | 0.00 | 0.00 | 0.00 | 92 | 1014.2 |
| 20260905022846 | 66 | 22 | 0.0 | 0.0 | 0.00 | 0.00 | 0.00 | 91 | 1014.3 |
| 20260905022342 | 66 | 22 | 0.0 | 0.9 | 0.00 | 0.00 | 0.00 | 91 | 1014.3 |
| 20260905021858 | 66 | 22 | 0.0 | 0.9 | 0.00 | 0.00 | 0.00 | 91 | 1014.3 |
| 20260905021332 | 66 | 22 | 0.0 | 0.0 | 0.00 | 0.00 | 0.00 | 91 | 1014.3 |
| 20260905020910 | 66 | 22 | 0.0 | 0.0 | 0.00 | 0.00 | 0.00 | 91 | 1014.3 |
| 20260905020344 | 67 | 22 | 0.0 | 0.0 | 0.00 | 0.00 | 0.00 | 91 | 1014.2 |
| 20260905015912 | 67 | 22 | 0.0 | 0.0 | 0.00 | 0.00 | 0.00 | 91 | 1014.3 |
| 20260905015408 | 67 | 22 | 0.0 | 0.0 | 0.00 | 0.00 | 0.00 | 91 | 1014.3 |
| 20260905014843 | 67 | 22 | 0.0 | 0.0 | 0.00 | 0.00 | 0.00 | 91 | 1014.3 |
| 20260905014340 | 67 | 22 | 0.0 | 0.0 | 0.00 | 0.00 | 0.00 | 90 | 1014.3 |
| 20260905013837 | 67 | 22 | 0.0 | 0.9 | 0.00 | 0.00 | 0.00 | 90 | 1014.3 |
| 20260905013337 | 67 | 22 | 0.0 | 0.9 | 0.00 | 0.00 | 0.00 | 90 | 1014.4 |
| 20260905012853 | 67 | 22 | 0.0 | 0.0 | 0.00 | 0.00 | 0.00 | 90 | 1014.3 |
| 20260905012348 | 67 | 22 | 0.0 | 0.0 | 0.00 | 0.00 | 0.00 | 90 | 1014.4 |
| 20260905011842 | 67 | 22 | 0.0 | 0.0 | 0.00 | 0.00 | 0.00 | 90 | 1014.3 |
| 20260905011339 | 67 | 22 | 0.0 | 0.0 | 0.00 | 0.00 | 0.00 | 89 | 1014.3 |
| 20260905010837 | 67 | 22 | 0.0 | 0.0 | 0.00 | 0.00 | 0.00 | 89 | 1014.2 |
| 20260905010331 | 67 | 22 | 0.0 | 0.0 | 0.00 | 0.00 | 0.00 | 89 | 1014.2 |
| 20260905005840 | 67 | 22 | 0.0 | 0.0 | 0.00 | 0.00 | 0.00 | 89 | 1014.2 |
| 20260905005336 | 67 | 22 | 0.0 | 0.0 | 0.00 | 0.00 | 0.00 | 89 | 1014.2 |
| 20260905004851 | 67 | 22 | 0.0 | 0.0 | 0.00 | 0.00 | 0.00 | 89 | 1014.2 |
| 20260905004406 | 68 | 22 | 0.0 | 0.0 | 0.00 | 0.00 | 0.00 | 89 | 1014.3 |
| 20260905003841 | 68 | 22 | 0.0 | 0.0 | 0.00 | 0.00 | 0.00 | 88 | 1014.4 |
| 20260905003336 | 68 | 22 | 0.0 | 0.0 | 0.00 | 0.00 | 0.00 | 88 | 1014.5 |
| 20260905002839 | 68 | 22 | 0.0 | 0.0 | 0.00 | 0.00 | 0.00 | 88 | 1014.4 |
| 20260905002335 | 68 | 22 | 0.0 | 0.0 | 0.00 | 0.00 | 0.00 | 88 | 1014.5 |
| 20260905001912 | 68 | 22 | 0.0 | 0.0 | 0.00 | 0.00 | 0.00 | 88 | 1014.5 |
| 20260905001345 | 68 | 22 | 0.0 | 0.0 | 0.00 | 0.00 | 0.00 | 87 | 1014.4 |
| 20260905000842 | 68 | 22 | 0.0 | 0.0 | 0.00 | 0.00 | 0.00 | 87 | 1014.2 |
| 20260905000357 | 68 | 22 | 0.0 | 0.0 | 0.00 | 0.00 | 0.00 | 86 | 1014.2 |
| 20260904235905 | 69 | 22 | 0.0 | 0.0 | 0.00 | 0.01 | 0.00 | 86 | 1014.1 |
| 20260904235339 | 69 | 22 | 0.0 | 0.0 | 0.00 | 0.01 | 0.00 | 86 | 1014.3 |
| 20260904234836 | 69 | 22 | 0.0 | 0.0 | 0.00 | 0.01 | 0.00 | 85 | 1014.4 |
| 20260904234337 | 69 | 22 | 0.0 | 0.0 | 0.00 | 0.01 | 0.00 | 85 | 1014.3 |
| 20260904233834 | 69 | 22 | 0.0 | 0.0 | 0.00 | 0.01 | 0.00 | 85 | 1014.4 |
| 20260904233350 | 69 | 22 | 0.0 | 0.0 | 0.00 | 0.01 | 0.00 | 85 | 1014.3 |
| 20260904232847 | 69 | 22 | 0.0 | 0.0 | 0.00 | 0.01 | 0.00 | 84 | 1014.2 |
| 20260904232343 | 70 | 22 | 0.0 | 0.0 | 0.00 | 0.01 | 0.00 | 84 | 1014.1 |
| 20260904231839 | 70 | 22 | 0.0 | 0.0 | 0.00 | 0.01 | 0.00 | 84 | 1014.1 |
| 20260904231335 | 70 | 22 | 0.0 | 0.0 | 0.00 | 0.01 | 0.00 | 83 | 1013.9 |
| 20260904230852 | 70 | 22 | 0.0 | 0.0 | 0.00 | 0.01 | 0.00 | 83 | 1013.9 |
| 20260904230346 | 70 | 22 | 0.0 | 0.0 | 0.00 | 0.01 | 0.00 | 82 | 1013.9 |
| 20260904225837 | 70 | 22 | 0.0 | 0.0 | 0.00 | 0.01 | 0.00 | 81 | 1013.9 |
| 20260904225353 | 71 | 22 | 0.0 | 0.0 | 0.00 | 0.01 | 0.00 | 81 | 1013.8 |
| 20260904224910 | 71 | 22 | 0.0 | 0.9 | 0.00 | 0.01 | 0.00 | 81 | 1013.9 |
| 20260904224344 | 71 | 22 | 0.0 | 0.9 | 0.00 | 0.01 | 0.00 | 80 | 1013.8 |
| 20260904223842 | 71 | 22 | 0.0 | 0.0 | 0.00 | 0.01 | 0.00 | 79 | 1013.8 |
| 20260904223336 | 71 | 22 | 0.0 | 1.7 | 0.00 | 0.01 | 0.00 | 79 | 1013.7 |
| 20260904222851 | 71 | 22 | 0.0 | 1.7 | 0.00 | 0.01 | 0.00 | 78 | 1013.6 |
| 20260904222345 | 71 | 22 | 0.0 | 3.5 | 0.00 | 0.01 | 0.00 | 78 | 1013.6 |
| 20260904221840 | 71 | 22 | 0.9 | 3.5 | 0.00 | 0.01 | 0.00 | 77 | 1013.5 |
| 20260904221333 | 71 | 26 | 0.9 | 2.6 | 0.00 | 0.01 | 0.00 | 78 | 1013.3 |
| 20260904220833 | 71 | 14 | 0.9 | 1.7 | 0.00 | 0.01 | 0.00 | 78 | 1013.1 |
| 20260904220348 | 71 | 14 | 0.0 | 0.0 | 0.00 | 0.01 | 0.00 | 79 | 1013.1 |
| 20260904215835 | 71 | 14 | 0.0 | 0.0 | 0.00 | 0.01 | 0.00 | 80 | 1013.1 |
| 20260904215351 | 71 | 14 | 0.0 | 0.0 | 0.00 | 0.01 | 0.00 | 79 | 1013.1 |
| 20260904214846 | 71 | 14 | 0.0 | 0.9 | 0.00 | 0.01 | 0.00 | 79 | 1013.0 |
| 20260904214339 | 71 | 14 | 0.0 | 1.7 | 0.00 | 0.01 | 0.00 | 80 | 1013.1 |
| 20260904213913 | 71 | 14 | 0.0 | 1.7 | 0.00 | 0.01 | 0.00 | 80 | 1013.0 |
| 20260904213347 | 71 | 14 | 0.0 | 0.9 | 0.00 | 0.01 | 0.00 | 78 | 1012.9 |
| 20260904212842 | 71 | 14 | 0.0 | 1.7 | 0.00 | 0.01 | 0.00 | 78 | 1013.0 |
| 20260904212337 | 71 | 14 | 0.0 | 2.6 | 0.00 | 0.01 | 0.00 | 78 | 1013.2 |
| 20260904211852 | 71 | 14 | 0.0 | 2.6 | 0.00 | 0.01 | 0.00 | 77 | 1013.2 |
| 20260904211346 | 71 | 123 | 0.0 | 1.7 | 0.00 | 0.01 | 0.00 | 78 | 1013.3 |
| 20260904210840 | 71 | 130 | 0.0 | 1.7 | 0.00 | 0.01 | 0.00 | 78 | 1013.3 |
| 20260904210335 | 70 | 130 | 0.0 | 1.7 | 0.00 | 0.01 | 0.00 | 81 | 1013.2 |
| 20260904205841 | 70 | 130 | 0.0 | 1.7 | 0.00 | 0.01 | 0.00 | 81 | 1013.6 |
| 20260904205335 | 70 | 130 | 0.0 | 0.0 | 0.00 | 0.01 | 0.00 | 79 | 1013.7 |
| 20260904204911 | 70 | 130 | 0.0 | 0.9 | 0.00 | 0.01 | 0.00 | 80 | 1013.7 |
| 20260904204345 | 70 | 130 | 0.0 | 0.9 | 0.00 | 0.01 | 0.00 | 81 | 1013.7 |
| 20260904203839 | 70 | 130 | 0.0 | 0.9 | 0.00 | 0.01 | 0.00 | 79 | 1013.7 |
| 20260904203334 | 70 | 130 | 0.0 | 1.7 | 0.00 | 0.01 | 0.00 | 78 | 1013.8 |